Theta_e
336 336 337 336 336 336 335 334 335 334 334 333 334 335 334 334 336 336 337 338 338 337 336 335 334 333 332 332 332 331 329 327 327 327 326 325 323 314 301 298 298 298 298 299 299 300 300 300 300 301 301 301
336 336 336 336 336 336 335 335 335 334 333 333 334 335 334 335 335 336 337 337 338 337 336 335 334 333 333 332 331 329 327 326 326 326 325 324 322 314 302 297 298 298 298 299 299 300 300 300 300 300 301 301
336 336 336 336 336 336 335 335 335 334 334 335 335 335 334 335 335 336 337 337 337 337 336 335 334 334 333 332 329 328 327 326 325 325 325 324 320 312 300 297 298 298 298 299 299 299 299 299 300 300 301 301
337 337 337 337 337 336 335 335 336 336 335 335 336 336 335 335 335 336 338 337 337 337 336 335 334 334 333 331 328 326 327 325 325 324 324 323 319 309 299 298 298 298 298 298 299 299 299 299 300 300 300 300
338 337 338 338 337 337 336 335 336 336 336 335 335 336 335 335 335 335 337 337 337 337 336 335 334 333 332 331 327 325 325 325 324 324 323 322 318 307 298 298 297 298 299 299 299 299 300 300 300 300 299 299
338 338 338 338 338 338 337 336 337 337 336 335 335 335 335 335 335 335 336 337 337 336 336 335 334 332 331 330 328 325 324 324 323 323 322 321 317 306 298 298 298 298 299 299 300 300 300 300 300 300 299 299
338 338 338 339 339 338 338 337 337 337 337 336 335 335 335 335 335 335 335 336 336 336 336 335 334 331 329 330 328 324 323 323 323 321 321 320 316 304 298 298 297 298 299 299 299 300 300 299 300 299 299 299
337 338 338 338 338 338 338 338 338 338 337 336 336 335 334 333 334 336 335 336 336 335 335 335 333 331 330 330 328 324 323 323 322 321 320 319 313 302 299 298 298 298 299 299 299 299 300 299 299 299 299 298
335 336 337 338 338 338 337 338 338 338 338 337 336 336 335 333 334 336 336 336 336 335 335 334 332 331 330 329 327 325 323 322 322 321 320 317 310 302 299 297 297 298 299 299 299 299 299 299 299 299 299 298
334 334 335 336 336 337 338 338 338 339 338 337 336 335 335 333 333 336 336 336 336 335 335 333 332 331 330 329 328 326 324 322 321 321 320 316 309 303 299 297 297 297 298 299 299 299 299 299 299 299 299 298
333 334 333 333 334 334 336 337 338 339 338 337 335 334 334 333 333 336 336 336 335 335 334 333 332 331 330 329 328 326 325 323 321 320 319 316 310 304 300 298 297 297 298 299 299 299 299 299 299 298 299 298
332 333 333 333 332 332 333 336 337 338 337 336 334 333 332 331 333 335 335 335 335 334 333 332 332 331 330 329 328 326 325 324 322 320 318 316 312 305 301 298 297 297 298 299 299 299 299 299 299 299 298 299
331 332 334 334 333 332 333 335 336 336 337 335 334 333 330 329 333 334 333 334 334 334 333 332 331 330 330 328 327 326 324 324 322 320 318 317 314 308 303 299 297 298 298 299 299 299 299 299 299 299 299 299
329 331 333 333 333 333 333 333 334 334 334 333 333 333 330 329 332 334 333 333 334 333 332 332 331 330 329 328 326 325 324 324 322 320 318 317 316 311 305 300 297 298 298 299 299 299 299 298 298 298 299 299
329 331 332 333 333 333 333 333 333 333 333 333 332 332 330 329 330 333 333 334 334 333 332 332 331 329 328 327 326 325 324 324 322 320 318 316 315 312 307 301 297 297 298 298 298 299 298 298 297 297 298 299
329 330 331 333 333 333 333 333 333 334 333 333 332 332 331 330 330 330 331 332 333 333 332 332 330 329 327 326 325 325 324 323 322 320 318 316 316 314 310 306 301 298 299 299 298 298 298 297 297 297 297 298
329 330 331 332 333 333 333 332 333 333 333 332 332 332 332 332 331 331 331 331 332 332 332 331 330 329 327 326 325 324 324 323 322 320 318 317 317 317 313 311 306 300 300 299 298 297 297 297 297 297 297 297
330 331 331 332 332 332 332 332 332 332 332 332 332 332 331 331 331 331 331 331 332 332 332 331 330 329 327 326 325 324 324 323 321 319 318 317 318 318 315 313 308 302 300 300 299 297 296 297 296 297 297 297
329 329 330 331 331 331 331 330 331 331 331 331 331 331 331 330 330 330 330 331 331 331 331 330 329 328 327 326 325 324 323 322 321 319 317 317 317 317 315 313 307 302 301 300 298 296 296 297 296 296 296 296
327 328 328 329 329 329 329 329 329 329 329 329 329 330 330 330 330 330 330 330 330 330 330 329 329 328 327 326 325 324 323 321 320 318 316 316 316 316 315 312 305 301 301 299 297 296 296 297 296 296 296 296
324 325 326 326 327 327 327 327 328 328 328 328 327 328 328 328 329 329 329 329 329 329 329 329 328 328 327 326 325 323 322 321 319 318 316 316 315 315 314 311 305 302 300 298 297 297 297 296 296 295 295 296
321 322 323 324 324 325 325 325 326 326 326 326 326 327 326 326 327 327 328 328 328 328 328 328 327 327 326 325 324 323 322 320 319 317 317 316 315 314 313 311 307 303 300 298 298 297 297 296 295 295 295 295
318 319 320 320 321 321 321 321 322 323 323 323 323 323 323 324 324 325 326 326 326 326 326 326 326 326 325 324 324 323 321 320 319 317 317 316 314 313 311 309 307 303 300 298 298 297 297 296 295 295 295 295
315 316 317 317 318 317 317 317 318 318 318 319 319 319 319 320 320 322 322 323 323 323 323 323 324 324 324 323 322 322 321 320 320 319 317 316 314 312 310 307 304 301 299 298 297 297 296 296 296 296 296 295
313 314 314 314 314 314 313 314 314 314 314 314 315 315 315 315 316 316 317 318 318 318 319 320 320 320 320 321 321 321 321 320 320 319 317 315 313 311 309 306 303 300 298 297 297 296 296 296 296 296 296 296
310 310 310 310 310 311 310 310 310 310 310 310 310 310 310 310 311 312 313 313 313 313 314 315 316 316 317 317 317 317 317 317 317 317 316 313 311 309 307 305 303 300 298 297 296 296 295 296 296 296 296 296
307 307 308 308 308 308 308 307 307 306 305 305 305 304 304 305 306 307 308 309 309 310 310 310 311 312 312 313 313 314 313 313 313 314 313 312 310 308 305 303 301 300 299 297 296 295 296 297 298 297 296 296
305 305 306 306 306 306 305 305 304 304 303 303 303 302 302 302 302 303 303 304 305 306 307 307 308 308 309 309 309 310 310 310 310 310 310 309 309 307 303 302 301 300 298 297 297 296 295 295 295 299 297 294
305 305 305 305 304 304 303 303 302 302 302 302 302 302 302 302 301 301 301 301 302 302 303 304 305 305 306 306 306 307 307 307 308 308 308 307 307 305 303 302 301 300 298 297 297 297 296 295 295 301 298 293
304 304 303 303 302 301 300 299 298 298 299 300 301 301 302 302 301 301 301 300 300 300 300 301 302 302 303 303 304 304 304 304 305 305 306 306 306 305 304 302 300 299 298 297 297 296 296 296 296 299 296 295
302 301 301 300 299 298 297 296 296 297 298 299 299 300 300 301 301 301 301 300 300 300 299 299 299 300 300 300 301 301 302 302 303 302 303 303 303 303 303 302 299 298 298 298 297 296 296 296 295 295 295 297
Wind_Speed
28 28 27 26 24 22 22 22 22 21 21 21 20 19 19 18 17 16 15 17 17 16 15 13 12 11 11 10 8 6 5 7 7 6 8 10 9 5 3 4 6 6 6 6 5 5 4 5 5 6 6 7
29 28 28 27 26 25 24 23 22 22 21 21 20 20 20 19 19 17 16 17 18 17 17 14 13 12 11 10 8 7 7 9 9 8 11 11 10 7 4 5 6 6 6 6 5 5 4 5 5 5 6 6
30 29 29 29 27 26 25 24 23 23 22 22 21 20 20 20 19 18 17 18 19 18 17 15 14 13 12 10 7 8 11 11 10 10 13 11 10 8 6 7 7 7 7 6 5 5 5 5 4 4 5 5
30 30 30 29 28 28 27 26 25 24 23 23 22 21 21 21 20 19 18 19 20 20 18 16 16 14 12 10 7 10 14 13 12 12 14 13 11 8 8 9 8 8 8 7 6 5 5 4 4 4 4 4
30 30 30 30 29 29 28 28 27 25 25 24 23 22 22 22 22 21 20 20 21 21 19 17 17 15 13 10 9 13 14 14 13 13 14 13 11 10 10 9 9 8 8 7 6 5 5 4 4 3 3 3
30 30 30 30 30 29 29 29 28 27 26 25 24 23 23 23 23 22 21 22 22 22 21 19 18 16 13 12 11 13 15 15 13 14 15 14 13 12 11 10 10 9 8 8 7 7 6 5 5 4 4 4
30 30 30 30 30 30 30 29 28 28 27 25 24 24 23 23 23 23 23 23 23 23 22 20 18 16 14 14 13 13 15 15 14 15 15 13 14 14 12 12 11 11 10 9 9 8 8 7 7 6 6 6
30 30 30 31 31 31 30 30 29 28 28 26 24 23 23 23 24 24 23 23 24 23 22 20 18 17 16 15 14 13 15 16 15 15 15 13 15 15 14 13 12 12 11 10 10 9 9 8 7 6 6 6
29 30 30 30 30 31 31 31 30 29 28 27 25 24 23 23 23 24 24 24 24 23 22 20 19 19 18 16 15 15 16 17 17 17 17 17 17 15 15 14 13 13 12 11 11 10 9 8 7 6 6 6
27 28 29 30 30 31 31 31 31 30 29 27 26 25 24 24 24 25 25 25 25 25 24 23 22 21 20 18 17 17 17 18 19 19 20 20 18 17 16 15 14 13 12 11 10 10 8 7 6 5 5 5
26 27 27 28 29 30 30 31 31 30 29 28 27 26 25 24 24 26 26 26 26 26 25 24 24 22 21 20 19 19 18 19 21 22 22 22 20 18 17 16 15 14 13 12 10 9 8 7 6 5 5 5
25 26 26 26 27 28 29 31 31 31 30 29 28 27 26 24 25 27 27 27 27 26 25 24 24 23 22 22 21 20 20 20 22 23 23 23 21 19 18 17 16 15 14 12 11 9 8 7 6 6 5 5
24 25 25 25 26 26 27 29 30 31 30 29 28 27 26 24 25 27 27 27 27 26 25 24 24 24 24 23 22 21 21 22 22 24 24 24 23 20 18 18 17 16 15 13 11 11 9 8 8 7 7 7
23 24 25 25 25 25 26 27 27 27 27 27 27 27 26 25 25 27 27 28 27 26 26 25 25 25 24 24 23 22 22 22 22 24 25 25 25 21 19 19 18 17 15 14 13 12 11 10 9 9 9 8
21 22 23 24 24 25 25 25 25 25 25 25 25 24 24 24 25 27 27 27 27 27 26 26 26 25 25 24 23 22 22 21 22 23 25 26 25 23 21 19 18 17 16 15 14 14 13 12 11 11 10 10
19 20 21 22 23 24 24 24 24 24 24 24 23 23 23 23 25 27 27 27 27 27 27 27 26 26 25 25 24 23 22 21 21 23 25 26 25 23 21 20 19 18 17 17 16 15 14 14 13 13 12 11
17 18 19 19 20 20 21 21 22 23 23 22 22 22 22 22 24 26 27 28 28 28 28 27 27 27 26 25 24 23 21 21 21 22 24 25 24 24 23 22 21 21 20 19 19 17 16 16 15 14 13 12
13 14 15 16 16 16 17 18 19 20 20 20 20 21 21 22 22 24 25 27 28 28 28 28 27 27 26 25 24 22 21 21 21 22 24 24 24 24 23 22 23 23 22 21 20 19 18 17 16 15 15 14
7 8 9 10 10 10 12 13 15 17 17 18 19 20 21 21 22 22 24 25 26 27 27 28 27 27 26 25 24 22 21 21 21 22 23 24 24 23 23 21 22 24 23 22 22 21 20 19 18 17 17 16
2 1 2 3 4 4 5 7 11 13 14 15 16 17 19 20 21 22 23 24 25 26 27 27 28 27 26 25 24 22 21 21 21 22 23 23 23 23 23 21 22 23 24 23 23 22 21 20 20 19 19 18
11 9 6 5 4 3 2 1 3 5 7 8 9 11 14 16 19 21 23 24 25 25 26 27 27 27 26 25 24 22 21 21 21 22 23 23 23 23 23 22 23 24 24 24 23 22 22 21 21 21 20 18
14 13 13 12 11 10 9 8 5 3 1 0 2 4 5 8 12 17 20 22 24 24 25 25 26 26 25 24 23 22 21 21 21 22 23 23 23 23 23 23 24 25 25 24 23 22 22 22 22 21 20 19
13 12 13 13 13 14 14 12 11 10 9 8 7 6 5 3 4 8 12 15 17 20 21 22 23 24 23 23 23 22 21 21 21 22 23 24 24 24 24 24 24 24 24 23 22 22 21 21 21 21 20 20
16 15 14 13 13 14 16 14 13 13 13 13 12 12 11 9 8 5 4 6 8 11 15 18 20 21 22 22 22 22 22 22 23 24 25 25 25 25 24 24 23 22 22 22 20 19 20 19 19 20 20 20
19 19 18 17 17 17 17 16 14 15 15 14 13 12 12 11 11 10 9 9 8 7 7 10 13 16 18 19 20 21 23 24 25 25 26 26 25 24 24 24 23 22 21 18 16 14 16 18 19 19 19 21
21 20 19 18 18 17 16 17 17 17 16 14 13 12 12 11 10 9 9 10 11 12 11 10 9 10 12 15 18 20 22 23 24 25 25 25 24 23 24 24 23 23 20 16 14 10 8 11 16 18 20 23
23 21 19 18 18 16 17 18 18 17 17 15 14 14 13 12 10 8 7 7 8 9 11 12 12 11 11 12 14 17 19 20 21 23 24 24 24 23 23 23 22 23 23 19 14 7 4 4 6 10 17 25
23 22 21 21 20 18 18 18 16 16 17 16 17 18 17 16 14 12 10 8 7 7 8 9 10 11 11 12 12 13 15 17 19 20 22 23 24 23 21 21 22 24 26 25 17 7 2 1 0 4 9 16
20 20 19 19 18 17 18 18 19 19 19 18 17 18 18 17 17 17 15 14 12 10 9 8 9 9 10 11 11 11 12 14 17 18 20 21 23 24 22 21 23 24 25 29 28 17 5 1 2 4 3 5
19 19 19 18 19 20 20 21 22 22 21 20 18 17 14 13 14 15 16 16 15 14 12 11 10 10 9 10 11 11 11 11 12 15 18 20 21 23 24 23 22 22 24 28 33 31 20 12 7 3 1 1
21 22 22 22 23 23 22 21 20 20 20 20 18 16 15 14 13 12 12 12 13 13 13 13 12 11 11 11 11 11 11 11 11 12 14 18 20 21 23 24 22 22 24 25 29 34 34 29 20 12 7 3
Wind_Direction
213 211 211 212 213 211 209 205 205 204 201 201 199 201 201 204 213 219 218 205 197 203 205 203 205 209 215 222 232 234 237 236 221 226 232 227 240 236 174 166 158 152 156 159 163 158 151 148 156 168 174 181
216 215 214 214 215 213 212 209 209 208 205 205 204 205 206 207 213 218 217 208 205 208 209 210 212 215 221 229 238 242 238 224 211 226 239 239 243 232 188 171 164 160 163 166 169 162 157 159 166 174 175 184
218 218 217 217 217 215 214 212 211 211 210 209 208 209 211 212 215 218 216 210 211 211 213 218 221 223 224 236 243 230 227 215 197 215 236 240 235 221 189 177 169 167 170 170 171 167 166 170 178 178 175 184
219 220 220 219 218 217 216 214 213 214 215 214 212 213 213 214 217 219 217 212 212 212 217 222 227 230 230 242 235 214 221 217 204 212 230 235 230 216 191 180 173 173 172 172 172 170 174 178 186 181 178 184
221 221 221 221 220 219 218 217 216 216 217 218 216 217 217 215 217 219 219 216 215 215 218 224 231 234 236 247 233 215 220 221 213 214 227 232 228 215 192 179 176 178 176 175 177 179 183 187 190 186 183 184
223 223 222 222 222 221 221 219 219 219 220 221 219 220 220 218 218 220 221 219 218 219 220 226 231 233 238 247 237 223 225 226 217 215 228 232 225 214 189 180 180 182 184 182 184 187 190 192 191 186 182 187
225 225 224 223 223 223 223 222 222 223 224 225 223 222 222 222 220 221 222 221 221 221 223 226 231 237 243 244 237 229 229 229 221 217 229 227 216 208 189 184 185 187 190 188 189 189 190 190 189 184 181 188
228 228 226 225 225 225 224 224 224 225 227 228 228 225 224 225 223 223 223 223 223 222 224 226 231 241 243 238 233 231 230 231 225 217 222 220 209 201 192 189 189 193 194 191 192 192 192 191 187 182 180 188
230 230 228 226 226 227 226 226 225 225 228 229 230 228 226 227 225 224 224 224 223 222 224 226 230 234 232 232 232 231 230 231 228 220 221 225 213 199 194 193 193 199 200 196 196 195 195 193 187 183 185 189
234 233 232 230 228 228 228 228 226 226 227 228 230 229 227 227 225 224 224 223 223 222 223 225 227 227 228 231 233 232 233 231 229 225 225 230 220 202 196 195 196 202 204 202 201 201 201 200 192 187 194 195
236 236 235 235 233 230 228 228 228 228 229 230 231 230 228 227 225 224 224 223 223 222 221 223 225 227 230 234 235 235 235 233 230 229 229 233 227 208 200 199 199 203 206 205 205 208 208 207 202 196 203 209
239 239 238 238 238 234 230 228 229 230 231 233 234 233 231 228 226 225 225 225 223 222 223 225 229 232 235 236 237 236 237 236 233 231 230 233 231 215 206 204 202 206 209 209 209 212 213 214 218 215 216 224
241 241 239 237 238 237 233 231 232 234 234 235 236 236 235 229 226 227 227 227 227 226 227 230 234 237 238 237 237 236 237 237 235 233 231 233 233 224 215 211 207 208 211 212 213 214 217 218 224 229 231 236
243 242 240 239 239 238 237 236 236 236 236 237 238 238 237 230 226 229 230 229 230 231 232 235 238 239 239 239 238 238 239 238 238 237 234 233 234 229 221 217 214 214 214 215 217 218 219 220 225 231 234 239
246 245 244 243 241 239 239 240 240 238 238 238 240 242 241 234 228 230 233 233 233 234 237 239 241 241 240 240 240 239 241 242 242 241 239 237 237 234 226 221 220 220 220 219 221 223 223 223 225 230 235 239
250 250 248 246 242 241 241 240 240 239 239 240 241 243 243 241 236 233 235 236 238 239 241 242 243 244 242 242 241 240 242 245 246 245 242 239 239 239 233 228 227 225 224 225 226 226 226 225 225 230 235 240
253 253 250 247 245 244 242 239 238 238 240 242 244 244 243 245 243 239 238 238 241 243 244 244 245 246 246 244 242 241 243 245 247 246 241 238 237 239 238 235 232 227 226 228 230 230 228 227 227 229 233 239
255 255 252 250 248 247 246 242 241 241 241 242 242 244 245 246 246 244 243 243 243 244 244 245 245 247 247 246 242 242 245 246 247 246 242 238 237 240 242 241 236 229 227 229 231 231 229 228 227 228 233 237
266 266 261 257 255 255 256 253 250 248 246 245 243 243 243 245 245 245 244 245 244 244 244 245 245 247 248 246 243 242 245 247 247 246 244 241 239 241 243 243 237 231 231 232 230 228 229 228 227 229 231 233
43 329 279 263 263 261 261 256 253 250 248 247 245 244 243 243 243 242 242 244 244 244 244 245 246 247 247 245 244 244 245 247 248 245 243 242 242 242 241 240 236 234 235 235 232 229 229 229 228 229 230 231
74 74 77 81 84 91 107 202 242 248 247 247 246 246 246 244 242 241 240 242 244 244 244 244 244 244 243 242 243 245 246 248 249 246 242 241 241 240 239 239 237 236 236 235 233 230 230 230 229 230 230 231
76 78 79 79 81 83 84 83 83 84 93 293 266 261 257 251 246 242 240 242 243 244 243 241 241 240 239 239 242 245 248 249 247 244 242 241 239 238 238 240 241 240 238 235 234 232 231 230 230 232 233 233
79 80 78 78 78 74 70 68 69 68 62 56 51 43 31 357 287 257 246 245 244 242 241 239 239 241 240 240 241 241 243 244 244 242 240 239 238 236 238 242 245 244 240 235 233 233 231 231 232 233 235 236
76 76 73 73 72 66 61 60 62 61 54 50 49 47 47 45 36 10 317 281 265 252 244 239 236 237 239 240 240 240 241 243 246 245 243 240 237 235 236 238 241 243 239 232 230 231 232 232 233 235 236 238
71 71 69 68 67 64 60 59 60 60 55 50 47 44 44 45 43 35 25 12 356 333 294 266 251 243 239 239 239 242 246 246 246 245 244 241 237 235 234 235 236 236 232 226 225 230 236 237 236 236 237 239
75 74 73 71 69 65 62 58 57 59 58 56 54 48 43 38 34 30 24 17 12 7 1 347 322 293 270 255 246 243 243 243 241 241 241 240 237 235 235 236 237 230 222 216 218 225 242 251 247 244 242 241
79 80 81 80 77 74 71 66 63 63 61 58 56 52 47 43 35 27 21 13 6 4 5 3 356 346 327 300 276 260 251 246 244 243 242 241 240 238 234 234 236 231 225 217 213 219 248 259 259 257 250 245
86 88 88 87 85 84 81 76 72 68 61 58 58 56 53 48 42 36 30 22 12 6 4 2 357 354 348 339 323 299 279 267 260 254 250 247 244 240 234 233 235 235 230 221 213 210 227 208 253 267 256 250
93 93 91 90 86 81 76 68 61 56 52 53 55 55 54 52 49 46 42 35 27 19 10 5 359 353 348 346 343 334 317 295 282 273 266 260 253 246 241 240 241 240 233 226 224 220 208 170 235 248 259 277
91 89 84 82 76 68 62 55 50 48 48 49 50 50 52 53 50 49 48 44 38 33 27 19 9 359 352 349 346 343 339 324 304 290 281 275 267 259 254 250 247 245 241 235 231 227 227 236 239 254 278 275
87 86 82 79 76 69 64 58 52 53 55 54 52 53 54 55 52 47 44 40 34 32 31 30 26 17 7 359 354 349 344 339 328 310 296 286 277 271 265 256 250 250 250 244 237 233 234 238 246 263 272 239